Location: *
(45.9500°N, 9.0833°E)
Time: 20:05:01
(UTC+00:00)

Vanguard 2 Rocket - Pass Details

Date: 16 June 2021
Orbit: 555 x 3325 km, 32.9° (Epoch: 30 July)

Event Time Altitude Azimuth Distance (km) Brightness Sun altitude
Rises 23:57:36 0° 267° (W) 6,174 11.0 -20.3°
Reaches altitude 10° 00:02:54 10° 259° (W) 4,676 10.3 -20.2°
Maximum altitude 00:12:32 29° 206° (SSW) 2,451 8.5 -19.8°
Enters shadow 00:13:10 29° 199° (SSW) 2,400 8.4 -19.8°
Drops below altitude 10° 00:18:43 10° 149° (SSE) 2,922 - -19.6°
Sets 00:21:14 0° 137° (SE) 3,589 - -19.5°
